"Pseudo-MPEC" for W05630

Created 2023 Nov 23 13:22:19 UT using Find_Orb

Click here for an explanation of pseudo-MPECs

 
 Astrometry: 
     W05630 * C2023 11 17/AS_\WpKmfAUI*0UAstrometryZ`T.mKRCcHb$quW0XOBN5;AD=EO18
     W05630   C2023 11 17NNbh.q\YI%wrAQredacted;vlL-#^\yg64(WXyVa'WIJ?@`yjevaO18
     W05630   C2023 11 17MlSSy085/%Kwa\0:mqv$@FC;,B_Kr!2ym@-F*E[nJ`keBU%5L!9GO18
     W05630   C2023 11 18!7b-click3G3`E_o?loJkPro6=Z2s:Eoolq,.$@/k17?Z0fO41%,O18
     W05630   C2023 11 18'oJ;\CU^BK-iBnw4alnr]gSG-here\for\?bBF1lamiq+2Bm!aRrO18
     W05630   C2023 11 18OmdCf!dsIrU_7q'7]NR*=I6Ok)*cD7\s*FpJZC%,Sdw$E4asgl76O18
     W05630  HC2023 11 21\@\?%Ecp'\(R%^fcsUMpZr+uFLg]IWxB\x+RYg-as2E`hbYDiOX4204
     W05630  HC2023 11 21Sb:uEWxV/A9aLEAnR\g\M-D`+4j=PXplsk7Pjm91`!7,B+8$M1:_204
     W05630  KC2023 11 22;#s+@#cjo\6`f-ZkH[\TWhF5;WPoO5dRboLe3explanation=4ISN89
     W05630  KC2023 11 22Nj3[JX)+:7b\^wQ;M!Eew$[$CHA1qN_aau1?Xp3p2J.d!#kVH.BfN89

Station data:
(204) Schiaparelli Observatory  (N45.867930 E8.770800)  Italy.  Observer L.
   Buzzi. 0.60-m f/4.64 Newtonian + CCD0.84-m f/3.5 reflector + CCD.
(N89) Xingming Observatory #2, Nanshan  (N43.470804 E87.179060)  China.
   Observers M. Zhang, X. Gao. Measurer M. Zhang. 0.50-m f/4 reflector + CCD.
(O18) WFST, Lenghu  (N38.607601 E93.895220).

Orbital elements:  W05630
   Perihelion 2024 Feb 1.68025 +/- 0.0833 TT = 16:19:33 (JD 2460342.18025)
Epoch 2023 Nov 22.0 TT = JDT 2460270.5   Earth MOID: 0.1884   Ma: 0.0137
M 335.67656027 +/- 0.45             (J2000 ecliptic)             AutoNEOCP
n   0.33933253 +/- 0.00669          Peri.   91.78832 +/- 0.21
a   2.03572472 +/- 0.0267           Node    34.63541 +/- 0.18
e   0.4591742 +/- 0.00639           Incl.    8.17839 +/- 0.11
P   2.90                   H 21.58  G  0.15   U  9.4
q 1.10097228 +/- 0.00189    Q 2.97047715 +/- 0.052
From 10 observations 2023 Nov. 17-22; mean residual 0".15
Residuals in arcseconds: 
231117 O18  .08-  .02+    231118 O18  .13+  .08-    231122 N89  .04+  .46-    
231117 O18  .05-  .12+    231118 O18  .02+  .03-    231122 N89  .01+  .38+    
231117 O18  .04-  .07-    231121 204  .12-  .05-    
231118 O18  .09+  .03-    231121 204  .03+  .18+    

Ephemerides (geocentric):
Date (UTC) HH   RA             Dec           delta  r     elong  mag " sig PA
---- --------  ------------   ------------  ------ ------ -----  --- --------
2023 11 23 13  04 20 43.145   +36 27 16.77  .35547 1.3313 162.8 20.7 .526  74
2023 11 23 14  04 20 41.172   +36 28 31.55  .35524 1.3310 162.8 20.7 .545  74
2023 11 23 15  04 20 39.194   +36 29 46.37  .35500 1.3308 162.8 20.7 .564  74
2023 11 23 16  04 20 37.211   +36 31 01.24  .35477 1.3306 162.8 20.7 .583  73
2023 11 23 17  04 20 35.222   +36 32 16.15  .35453 1.3303 162.8 20.7 .603  73
2023 11 23 18  04 20 33.228   +36 33 31.12  .35430 1.3301 162.8 20.7 .622  73
2023 11 23 19  04 20 31.229   +36 34 46.13  .35406 1.3299 162.8 20.7 .642  72
2023 11 23 20  04 20 29.225   +36 36 01.19  .35383 1.3296 162.8 20.7 .662  72
2023 11 23 21  04 20 27.216   +36 37 16.29  .35360 1.3294 162.8 20.7 .683  72
2023 11 23 22  04 20 25.201   +36 38 31.44  .35336 1.3292 162.8 20.7 .703  71
2023 11 23 23  04 20 23.182   +36 39 46.64  .35313 1.3289 162.8 20.7 .724  71
2023 11 24 00  04 20 21.157   +36 41 01.89  .35290 1.3287 162.8 20.7 .745  71
2023 11 24 01  04 20 19.127   +36 42 17.19  .35267 1.3285 162.8 20.7 .766  71
2023 11 24 02  04 20 17.092   +36 43 32.53  .35243 1.3282 162.8 20.7 .788  70
2023 11 24 03  04 20 15.052   +36 44 47.92  .35220 1.3280 162.8 20.7 .809  70
2023 11 24 04  04 20 13.006   +36 46 03.36  .35197 1.3278 162.9 20.7 .831  70
2023 11 24 05  04 20 10.955   +36 47 18.84  .35174 1.3276 162.9 20.7 .853  70
2023 11 24 06  04 20 08.900   +36 48 34.37  .35151 1.3273 162.9 20.7 .875  70
2023 11 24 07  04 20 06.839   +36 49 49.94  .35128 1.3271 162.9 20.7 .898  69
2023 11 24 08  04 20 04.773   +36 51 05.57  .35105 1.3269 162.9 20.7 .921  69
2023 11 24 09  04 20 02.701   +36 52 21.24  .35082 1.3266 162.9 20.7 .943  69
2023 11 24 10  04 20 00.625   +36 53 36.95  .35059 1.3264 162.9 20.7 .967  69
2023 11 24 11  04 19 58.543   +36 54 52.72  .35036 1.3262 162.9 20.7 .990  69
2023 11 24 12  04 19 56.456   +36 56 08.53  .35013 1.3259 162.9 20.7 1.01  68
2023 11 24 13  04 19 54.364   +36 57 24.38  .34990 1.3257 162.9 20.7 1.04  68
2023 11 24 14  04 19 52.267   +36 58 40.29  .34967 1.3255 162.9 20.7 1.06  68
2023 11 24 15  04 19 50.165   +36 59 56.23  .34944 1.3252 162.9 20.7 1.09  68
2023 11 24 16  04 19 48.058   +37 01 12.23  .34921 1.3250 162.9 20.7 1.11  68
2023 11 24 17  04 19 45.945   +37 02 28.27  .34898 1.3248 162.9 20.7 1.13  68
2023 11 24 18  04 19 43.828   +37 03 44.36  .34876 1.3246 162.9 20.7 1.16  67
2023 11 24 19  04 19 41.705   +37 05 00.49  .34853 1.3243 162.9 20.7 1.18  67
2023 11 24 20  04 19 39.577   +37 06 16.67  .34830 1.3241 162.9 20.7 1.21  67
2023 11 24 21  04 19 37.444   +37 07 32.90  .34807 1.3239 162.9 20.7 1.23  67
2023 11 24 22  04 19 35.305   +37 08 49.17  .34785 1.3236 162.9 20.7 1.26  67
2023 11 24 23  04 19 33.162   +37 10 05.48  .34762 1.3234 162.9 20.6 1.29  67
2023 11 25 00  04 19 31.014   +37 11 21.84  .34740 1.3232 162.9 20.6 1.31  67
2023 11 25 01  04 19 28.860   +37 12 38.25  .34717 1.3229 162.9 20.6 1.34  66
2023 11 25 02  04 19 26.701   +37 13 54.71  .34694 1.3227 162.9 20.6 1.36  66
2023 11 25 03  04 19 24.537   +37 15 11.20  .34672 1.3225 162.9 20.6 1.39  66
2023 11 25 04  04 19 22.368   +37 16 27.75  .34649 1.3223 162.9 20.6 1.42  66
2023 11 25 05  04 19 20.194   +37 17 44.34  .34627 1.3220 162.9 20.6 1.44  66
2023 11 25 06  04 19 18.015   +37 19 00.97  .34604 1.3218 162.9 20.6 1.47  66
2023 11 25 07  04 19 15.830   +37 20 17.65  .34582 1.3216 162.9 20.6 1.50  66
2023 11 25 08  04 19 13.641   +37 21 34.38  .34560 1.3213 162.9 20.6 1.53  65
2023 11 25 09  04 19 11.446   +37 22 51.15  .34537 1.3211 162.8 20.6 1.55  65
2023 11 25 10  04 19 09.246   +37 24 07.96  .34515 1.3209 162.8 20.6 1.58  65
2023 11 25 11  04 19 07.041   +37 25 24.82  .34493 1.3207 162.8 20.6 1.61  65
2023 11 25 12  04 19 04.831   +37 26 41.73  .34470 1.3204 162.8 20.6 1.64  65